Satellite-Ground Cal/Val Site Overpasses Predictions

Prediction of Satellite NPP Overpassing Cal/Val Site: Antarctic Dome C

Ground Cal/Val Site Location: Latitude: -75.10, Longitude: 123.35; Satellite-Ground Site NADIR distance within 100 km.

Table of predicted overpasses for the next 14.0 days since TLE Epoch: 2/20/2021
Interval Starting Time Ending Time Minimum Distance Time Minimum Distance (km)
1 02/20/2021 14:48:13 02/20/2021 14:48:42 02/20/2021 14:48:28 15.61
2 02/22/2021 07:31:02 02/22/2021 07:31:31 02/22/2021 07:31:17 1.31
3 02/25/2021 14:54:28 02/25/2021 14:54:57 02/25/2021 14:54:43 21.04
4 02/26/2021 14:35:47 02/26/2021 14:36:01 02/26/2021 14:35:54 85.97
5 02/27/2021 07:37:19 02/27/2021 07:37:46 02/27/2021 07:37:33 35.87
6 02/28/2021 07:18:33 02/28/2021 07:18:52 02/28/2021 07:18:42 74.22
7 03/02/2021 15:00:47 03/02/2021 15:01:11 03/02/2021 15:00:59 58.01
8 03/03/2021 14:41:57 03/03/2021 14:42:22 03/03/2021 14:42:10 51.16
9 03/04/2021 07:43:37 03/04/2021 07:43:58 03/04/2021 07:43:48 71.10
